Miscellaneous Local Product
Issued by NWS North Platte, NE

Home | Current Version | Previous Version | Graphics & Text | Print | Product List | Glossary On
Versions: 1 2 3 4 5 6 7 8 9 10 11 12 13 14 15 16 17 18 19 20 21 22 23 24 25 26 27 28 29 30 31 32 33 34 35 36 37 38 39 40 41 42 43 44 45 46 47 48 49 50
904
AXUS43 KLBF 132110
MISLBF


WESTERN AND NORTH CENTRAL NEBRASKA HOURLY WEATHER ROUNDUP
NATIONAL WEATHER SERVICE NORTH PLATTE NE
300 PM CST SAT FEB 13 2016

NOTE: "FAIR" INDICATES FEW OR NO CLOUDS BELOW 12,000 FEET WITH NO
SIGNIFICANT WEATHER AND/OR OBSTRUCTIONS TO VISIBILITY.

NOTE: STATIONS NOT REPORTING VARIABLES SUCH AS SKY/WEATHER OR
PRESSURE ARE PROVIDED BY THE NEBRASKA DEPARTMENT OF
ROADS...RAWS...AND APRS NETWORKS...AND ARE NOT UNDER
NATIONAL WEATHER SERVICE QUALITY CONTROL.

...OBSERVATIONS IN AND NEAR THE EASTERN PANHANDLE OF NEBRASKA...

CITY           SKY/WX    TMP DP  RH WIND       PRES   REMARKS
PINE RIDGE     CLOUDY    47  33  58 S16       29.81F
CHADRON        CLOUDY    58  33  39 SW10      29.79F
ALLIANCE       CLOUDY    41  33  73 S13       29.86F
SIDNEY         CLOUDY    41  35  79 S6        29.92F
CRESCENT LAKE    N/A     40  33  77 S13         N/A  WCI  32
$$

...OBSERVATIONS IN NORTH CENTRAL NEBRASKA...

CITY           SKY/WX    TMP DP  RH WIND       PRES   REMARKS
VALENTINE      CLOUDY    28  23  81 S20G33    29.94F WCI  15
THEDFORD       CLOUDY    25  23  92 S16G22    30.02F FOG     WCI  12
AINSWORTH      CLOUDY    27  20  76 S23G29    30.01F WCI  12
O`NEILL        CLOUDY    22  11  64 S23       30.13F WCI   6
ORD            CLOUDY    22  11  62 S15G22    30.15F WCI   9
BROKEN BOW     CLOUDY    22  17  81 S18       30.10F WCI   7
VALENTINE NWR    N/A     25  22  89 S20G26      N/A  WCI  11
BUTTE            N/A     22  13  68 SE21G30     N/A  WCI   7
HALSEY           N/A     23  19  85 S12G21      N/A  WCI  12
CHAMBERS         N/A     24   9  53 S12G24      N/A  WCI  13
EWING            N/A     20  11  68 S12         N/A  WCI   8
$$

...OBSERVATIONS IN SOUTHWEST NEBRASKA AND FAR NORTHEAST COLORADO...

CITY           SKY/WX    TMP DP  RH WIND       PRES   REMARKS
WRAY           MOCLDY    37  31  79 S6        29.99F WCI  32
HOLYOKE        CLOUDY    34  32  93 S6        29.98F WCI  29
IMPERIAL       CLOUDY    29  27  92 S13       30.02F WCI  19
OGALLALA       CLOUDY    31  28  90 S10       29.99F WCI  22
NORTH PLATTE   CLOUDY    23  19  85 S16       30.06F WCI  10
MCCOOK         CLOUDY    27  22  81 S15       30.10F HAZE    WCI  15
LEXINGTON      CLOUDY    24  17  76 S13G18    30.13F WCI  12
STAPLETON        N/A     22  20  91 CALM        N/A
$$

...OBSERVATIONS IN CENTRAL LINCOLN COUNTY AREA...

CITY           SKY/WX    TMP DP  RH WIND       PRES   REMARKS
N.P. AIRPORT   CLOUDY    23  19  85 S16       30.06F WCI  10
N.P. DOWNTOWN    N/A     23  21  93 S7G16       N/A  WCI  15
N.P. SOUTHEAST   N/A     23  21  91 S10G21      N/A  WCI  12
N.P. HILLCREST   N/A     23  22  96 S14G23      N/A  WCI  11
$$

...SOME OBSERVATIONS FROM AROUND THE REGION...

CITY           SKY/WX    TMP DP  RH WIND       PRES   REMARKS
DENVER         CLOUDY    62  15  16 CALM      29.94F
LARAMIE        CLOUDY    49  19  30 W32G44    30.00F
CHEYENNE       CLOUDY    59  16  18 W24G38    29.95F
SCOTTSBLUFF    CLOUDY    51  32  48 CALM      29.87F
RAPID CITY     SUNNY     50  32  50 S9        29.78F
BISMARCK       FLURRIES  19  10  68 SE21G28   29.98F WCI   3
PIERRE         CLOUDY    28  19  69 SE20      29.98F WCI  15
WINNER         CLOUDY    29  19  66 S22G29    30.00F WCI  15
SIOUX FALLS    FLURRIES   9  -1  64 SE17      30.30F WCI  -9
OMAHA          CLOUDY    18   5  57 SE15      30.40F WCI   4
GRAND ISLAND   CLOUDY    20   8  60 SE17      30.23F WCI   5
KANSAS CITY    CLOUDY    20   3  48 E13       30.41F WCI   7
WICHITA        CLOUDY    43   8  23 SE18G24   30.21F
OKLAHOMA CITY  MOSUNNY   57  31  37 S15       30.18F
LIBERAL        SUNNY     63  37  39 S15G22    30.00F
HAYS           CLOUDY    36  12  38 S15       30.15F WCI  26
GOODLAND       CLOUDY    30  29  96 S16       30.01F FOG     WCI  19
$$




USA.gov is the U.S. government's official web portal to all federal, state and local government web resources and services.